Weather Roundup
Issued by NWS Chicago, IL

Home | Current Version | Previous Version | Graphics & Text | Print | Product List | Glossary On
Versions: 1 2 3 4 5 6 7 8 9 10 11 12 13 14 15 16 17 18 19 20 21 22 23 24 25 26 27 28 29 30 31 32 33 34 35 36 37 38 39 40 41 42 43 44 45 46 47 48 49 50
000
NZUS59 KLOT 080608
HRRLOT

CHICAGO AREA WEATHER ROUNDUP
NATIONAL WEATHER SERVICE CHICAGO/ROMEOVILLE IL
1200 AM CST MON FEB 08 2016

NOTE: "FAIR" INDICATES FEW OR NO CLOUDS BELOW 12,000 FEET WITH NO
SIGNIFICANT WEATHER AND/OR OBSTRUCTIONS TO VISIBILITY.

* THESE STATIONS ARE NOT UNDER NWS QUALITY CONTROL. THEY ALSO MAY NOT
  REPORT WEATHER SUCH AS PRECIPITATION OR FOG.

ILZ005-006-012>014-019>023-080700-
NORTHEAST ILLINOIS

CITY           SKY/WX    TMP DP  RH WIND       PRES   REMARKS
OHARE          CLEAR     32  27  81 SW8       29.68F WCI  25
6HR MIN TEMP:  32; 6HR MAX TEMP:  40;

MIDWAY         PTCLDY    34  26  72 SW8       29.69F WCI  27
6HR MIN TEMP:  34; 6HR MAX TEMP:  43;

AURORA         CLEAR     32  27  81 SW7       29.69F WCI  26
6HR MIN TEMP:  32; 6HR MAX TEMP:  37;

LANSING*       CLEAR     32  27  81 SW8       29.71F WCI  25
WAUKEGAN       CLEAR     32  27  81 VRB5      29.65F WCI  27
6HR MIN TEMP:  32; 6HR MAX TEMP:  39;

DUPAGE AIRPORT CLEAR     29  24  82 SW7       29.68F WCI  22
6HR MIN TEMP:  29; 6HR MAX TEMP:  38;

WHEELING       CLEAR     33  27  78 SW7       29.69F WCI  27
6HR MIN TEMP:  33; 6HR MAX TEMP:  41;

MORRIS*        CLEAR     31  27  84 SW5       29.70S WCI  27
$$

WIZ051-052-058>065-066-070>072-080700-
SOUTHEAST WISCONSIN

CITY           SKY/WX    TMP DP  RH WIND       PRES   REMARKS
MILWAUKEE      CLEAR     31  26  82 SW6       29.63F WCI  25
6HR MIN TEMP:  31; 6HR MAX TEMP:  39;

KENOSHA*       CLEAR     31  26  82 SW10      29.65F WCI  22
RACINE*        CLEAR     31  25  78 S5        29.66S WCI  26
BURLINGTON     CLEAR     29  26  88 SW7       29.64F WCI  22
$$

INZ001>003-010>013-019-020-080700-
NORTHWEST INDIANA

CITY           SKY/WX    TMP DP  RH WIND       PRES   REMARKS
GARY*          PTCLDY    36  26  67 SW5       29.71F
6HR MIN TEMP:  36; 6HR MAX TEMP:  43;

MICHIGAN CITY* NOT AVBL
RENSSELAER*    NOT AVBL
VALPARAISO     PTCLDY    34  27  75 W12       29.71F WCI  25
$$

LMZ740>746-080700-
SOUTHERN LAKE MICHIGAN

STATION/POSITION TIME  SKY/WX   TEMP WIND        PRES    VSBY
                                AIR  DIR/SP/G
                 (UTC)          (F)  (DEG/KT/KT) (MB)    (MI)
HARRISON CRIB    0520            38  260/ 16/ 18   N/A
BURNHAM HARBOR   0600            35  260/  5/ 12   N/A
CALUMET HARBOR   0500            36  230/  7/ 10 1005.5F
BURNS HARBOR     0500            37  260/  8/ 11 1007.1F
MICHIGAN CITY    0500            35  220/ 13/ 13   N/A
$$

ABBREVIATIONS USED IN REMARKS
   TC - TEMPERATURE IN CELSIUS
  WCI - WIND CHILL INDEX
   HX - HEAT INDEX
  VSB - VISIBILITY
$$



USA.gov is the U.S. government's official web portal to all federal, state and local government web resources and services.